Torna al catalogo

STARLINK-35331

AttivoComunicazioniVLEO
NORAD 66468·PAYLOAD·🇺🇸 United States

Lanciato Nov 15, 2025 da Cape Canaveral Space Force Station

Loading…

Prossimi Passaggi (prossime 24 ore)

TLE

AggiornatoSource: CelesTrak SupGP

Epoca: Sep 14, 2026, 21:36 UTC

1 66468C 25262N   26257.90048611 -.00017034  00000+0 -61775-3 0  2570
2 66468  43.0029 307.9448 0001558 278.4867 304.2032 15.27545654    15

Traccia STARLINK-35331 in tempo reale con AllMySat

Download on the App Store